| time (UTC) | temp F | wind direction | speed MPH | gust MPH | rain 1hr in | rain 24hr in | rain mn in | humidity % | barometer mb |
| 20260505124533 | 0 | 0.0 | 0.0 | 0.00 | 0.00 | 0.00 | 1009.4 | ||
| 20260505123026 | 0 | 0.0 | 0.0 | 0.00 | 0.00 | 0.00 | 1009.1 | ||
| 20260505121523 | 0 | 0.0 | 0.0 | 0.00 | 0.00 | 0.00 | 1009.6 | ||
| 20260505120018 | 0 | 0.0 | 0.0 | 0.00 | 0.00 | 0.00 | 1009.0 | ||
| 20260505114513 | 0 | 0.0 | 0.0 | 0.00 | 0.00 | 0.00 | 1008.8 | ||
| 20260505113008 | 0 | 0.0 | 0.0 | 0.00 | 0.00 | 0.00 | 1009.0 | ||
| 20260505111503 | 0 | 0.0 | 0.0 | 0.00 | 0.00 | 0.00 | 1008.4 | ||
| 20260505101558 | 36 | 295 | 0.0 | 4.0 | 0.00 | 0.00 | 0.00 | 69 | 1008.1 |
| 20260505100055 | 37 | 330 | 1.0 | 6.0 | 0.00 | 0.00 | 0.00 | 68 | 1007.9 |
| 20260505094559 | 37 | 354 | 2.0 | 6.0 | 0.00 | 0.00 | 0.00 | 67 | 1007.9 |
| 20260505093055 | 37 | 298 | 1.0 | 6.0 | 0.00 | 0.00 | 0.00 | 68 | 1008.1 |
| 20260505091546 | 38 | 272 | 0.0 | 4.0 | 0.00 | 0.00 | 0.00 | 67 | 1007.7 |
| 20260505090044 | 38 | 290 | 0.0 | 5.0 | 0.00 | 0.00 | 0.00 | 66 | 1007.4 |
| 20260505084542 | 38 | 347 | 0.0 | 6.0 | 0.00 | 0.00 | 0.00 | 65 | 1007.6 |
| 20260505083050 | 38 | 10 | 2.0 | 6.0 | 0.00 | 0.00 | 0.00 | 64 | 1007.0 |
| 20260505081538 | 39 | 274 | 0.0 | 5.0 | 0.00 | 0.00 | 0.00 | 63 | 1007.0 |
| 20260505080035 | 39 | 305 | 0.0 | 4.0 | 0.00 | 0.00 | 0.00 | 62 | 1006.5 |
| 20260505074534 | 40 | 307 | 0.0 | 5.0 | 0.00 | 0.00 | 0.00 | 61 | 1006.7 |
| 20260505073032 | 40 | 321 | 0.0 | 5.0 | 0.00 | 0.00 | 0.00 | 59 | 1007.1 |
| 20260505071529 | 40 | 297 | 0.0 | 3.0 | 0.00 | 0.00 | 0.00 | 58 | 1006.5 |
| 20260505070028 | 41 | 314 | 0.0 | 6.0 | 0.00 | 0.00 | 0.00 | 57 | 1006.5 |
| 20260505064524 | 41 | 285 | 0.0 | 5.0 | 0.00 | 0.00 | 0.00 | 56 | 1006.4 |
| 20260505063022 | 42 | 274 | 0.0 | 5.0 | 0.00 | 0.00 | 0.00 | 54 | 1006.4 |
| 20260505061522 | 42 | 285 | 0.0 | 6.0 | 0.00 | 0.00 | 0.00 | 53 | 1006.8 |
| 20260505060019 | 42 | 301 | 1.0 | 6.0 | 0.00 | 0.00 | 0.00 | 53 | 1006.3 |
| 20260505054516 | 43 | 341 | 2.0 | 6.0 | 0.00 | 0.00 | 0.00 | 52 | 1006.1 |
| 20260505053015 | 43 | 339 | 0.0 | 7.0 | 0.00 | 0.00 | 0.00 | 52 | 1006.6 |
| 20260505051510 | 43 | 30 | 0.0 | 6.0 | 0.00 | 0.00 | 0.00 | 51 | 1006.0 |
| 20260505041503 | 44 | 356 | 0.0 | 2.0 | 0.00 | 0.00 | 0.00 | 51 | 1006.1 |
| 20260505040005 | 44 | 283 | 0.0 | 2.0 | 0.00 | 0.00 | 0.00 | 51 | 1005.7 |
| 20260505034501 | 44 | 341 | 0.0 | 4.0 | 0.00 | 0.00 | 0.00 | 51 | 1005.6 |
| 20260505033104 | 44 | 315 | 0.0 | 3.0 | 0.00 | 0.00 | 0.00 | 52 | 1005.9 |
| 20260505031558 | 43 | 314 | 0.0 | 2.0 | 0.00 | 0.00 | 0.00 | 51 | 1005.5 |
| 20260505030055 | 44 | 289 | 0.0 | 1.0 | 0.00 | 0.00 | 0.00 | 50 | 1005.6 |
| 20260505024553 | 44 | 37 | 0.0 | 0.0 | 0.00 | 0.00 | 0.00 | 49 | 1005.7 |
| 20260505023048 | 46 | 293 | 0.0 | 3.0 | 0.00 | 0.00 | 0.00 | 46 | 1005.1 |
| 20260505021545 | 46 | 291 | 0.0 | 2.0 | 0.00 | 0.00 | 0.00 | 45 | 1005.4 |
| 20260505020043 | 47 | 330 | 0.0 | 4.0 | 0.00 | 0.00 | 0.00 | 44 | 1005.2 |
| 20260505014542 | 47 | 313 | 0.0 | 6.0 | 0.00 | 0.00 | 0.00 | 42 | 1004.6 |
| 20260505013038 | 47 | 311 | 1.0 | 7.0 | 0.00 | 0.00 | 0.00 | 41 | 1004.8 |
| 20260505011538 | 48 | 281 | 1.0 | 8.0 | 0.00 | 0.00 | 0.00 | 41 | 1004.5 |
| 20260505010033 | 48 | 342 | 2.0 | 7.0 | 0.00 | 0.00 | 0.00 | 41 | 1003.9 |
| 20260505004630 | 49 | 310 | 4.0 | 18.0 | 0.00 | 0.00 | 0.00 | 41 | 1004.3 |
| 20260505003028 | 49 | 297 | 5.0 | 10.0 | 0.00 | 0.00 | 0.00 | 43 | 1004.2 |
| 20260505001525 | 50 | 311 | 4.0 | 11.0 | 0.00 | 0.00 | 0.00 | 41 | 1003.6 |
| 20260505000036 | 50 | 281 | 4.0 | 12.0 | 0.00 | 0.00 | 0.00 | 40 | 1003.3 |
| 20260504234518 | 52 | 309 | 6.0 | 14.0 | 0.00 | 0.00 | 0.00 | 38 | 1003.5 |
| 20260504233017 | 52 | 343 | 4.0 | 17.0 | 0.00 | 0.00 | 0.00 | 39 | 1003.2 |
| 20260504231512 | 53 | 38 | 6.0 | 15.0 | 0.00 | 0.00 | 0.00 | 38 | 1002.9 |
| 20260504230010 | 53 | 316 | 4.0 | 11.0 | 0.00 | 0.00 | 0.00 | 39 | 1002.8 |
| 20260504224507 | 54 | 333 | 6.0 | 16.0 | 0.00 | 0.00 | 0.00 | 36 | 1002.6 |
| 20260504223005 | 55 | 298 | 6.0 | 16.0 | 0.00 | 0.00 | 0.00 | 36 | 1002.3 |
| 20260504221503 | 54 | 352 | 6.0 | 16.0 | 0.00 | 0.00 | 0.00 | 36 | 1002.0 |
| 20260504220001 | 55 | 312 | 3.0 | 16.0 | 0.00 | 0.00 | 0.00 | 38 | 1001.9 |
| 20260504214601 | 55 | 281 | 6.0 | 17.0 | 0.00 | 0.00 | 0.00 | 38 | 1001.7 |
| 20260504213110 | 55 | 342 | 4.0 | 11.0 | 0.00 | 0.00 | 0.00 | 40 | 1001.5 |
| 20260504211556 | 56 | 305 | 4.0 | 16.0 | 0.00 | 0.00 | 0.00 | 38 | 1000.7 |
| 20260504210052 | 56 | 360 | 7.0 | 18.0 | 0.00 | 0.00 | 0.00 | 38 | 1000.7 |
| 20260504204600 | 56 | 359 | 6.0 | 14.0 | 0.00 | 0.00 | 0.00 | 42 | 1000.4 |
| 20260504203050 | 56 | 338 | 5.0 | 17.0 | 0.00 | 0.00 | 0.00 | 42 | 1000.2 |
| 20260504201549 | 57 | 352 | 7.0 | 18.0 | 0.00 | 0.00 | 0.00 | 40 | 1000.2 |
| 20260504200050 | 59 | 8 | 8.0 | 20.0 | 0.00 | 0.00 | 0.00 | 39 | 1000.1 |
| 20260504194549 | 59 | 316 | 7.0 | 16.0 | 0.00 | 0.00 | 0.00 | 38 | 999.9 |
| 20260504193106 | 59 | 342 | 8.0 | 17.0 | 0.00 | 0.00 | 0.00 | 38 | 999.7 |
| 20260504191553 | 59 | 280 | 5.0 | 10.0 | 0.00 | 0.00 | 0.00 | 40 | 999.4 |
| 20260504190059 | 58 | 45 | 5.0 | 18.0 | 0.00 | 0.00 | 0.00 | 42 | 999.1 |
| 20260504184549 | 59 | 311 | 5.0 | 14.0 | 0.00 | 0.00 | 0.00 | 42 | 998.8 |
| 20260504183058 | 59 | 353 | 6.0 | 14.0 | 0.00 | 0.00 | 0.00 | 41 | 998.9 |
| 20260504181650 | 58 | 274 | 5.0 | 15.0 | 0.00 | 0.00 | 0.00 | 44 | 998.5 |
| 20260504180117 | 59 | 343 | 5.0 | 15.0 | 0.00 | 0.00 | 0.00 | 41 | 998.7 |
| 20260504174545 | 60 | 309 | 7.0 | 15.0 | 0.00 | 0.00 | 0.00 | 40 | 998.5 |
| 20260504173046 | 60 | 326 | 6.0 | 17.0 | 0.00 | 0.00 | 0.00 | 38 | 998.4 |
| 20260504171548 | 60 | 344 | 6.0 | 15.0 | 0.00 | 0.00 | 0.00 | 37 | 998.3 |